OE3KJN-13 Weather Reports


Display with metric or nautical units.
time (UTC)temp
F
wind
direction
speed
MPH
gust
MPH
rain 1hr
in
rain 24hr
in
rain mn
in
humidity
%
barometer
mb
20260507025600 66 203 2.0 2.0 0.00 0.00 0.00 100
20260507025100 65 123 0.0 3.0 0.00 0.00 0.00 100
20260507024559 65 189 2.0 3.0 0.00 0.00 0.00 100
20260507024059 64 172 2.0 3.0 0.00 0.00 0.00 100
20260507023559 62 147 2.0 5.0 0.00 0.00 0.00 100
20260507023058 62 144 2.0 4.0 0.00 0.00 0.00 100
20260507022558 67 355 0.0 0.0 0.00 0.00 0.00 100
20260507022058 66 355 0.0 3.0 0.00 0.00 0.00 100
20260507021558 65 357 2.0 6.0 0.00 0.00 0.00 100
20260507021057 67 270 0.0 5.0 0.00 0.00 0.00 100
20260507020557 67 26 2.0 4.0 0.00 0.00 0.00 100
20260507020057 67 16 3.0 8.0 0.00 0.00 0.00 100
20260507015556 67 348 3.0 9.0 0.00 0.00 0.00 100
20260507015056 65 330 3.0 13.0 0.00 0.00 0.00 100
20260507014556 65 358 3.0 8.0 0.00 0.00 0.00 100
20260507014056 63 333 2.0 8.0 0.00 0.00 0.00 100
20260507013556 65 25 2.0 8.0 0.00 0.00 0.00 100
20260507013055 64 39 2.0 9.0 0.00 0.00 0.00 100
20260507012555 64 358 4.0 10.0 0.00 0.00 0.00 100
20260507012054 65 1 7.0 14.0 0.00 0.00 0.00 100
20260507011554 64 327 3.0 14.0 0.00 0.00 0.00 100
20260507011054 64 9 6.0 12.0 0.00 0.00 0.00 100
20260507010554 65 1 8.0 14.0 0.00 0.00 0.00 100
20260507010053 65 0 5.0 18.0 0.00 0.00 0.00 100
20260507005553 65 19 5.0 16.0 0.00 0.00 0.00 100
20260507005053 64 315 3.0 21.0 0.00 0.00 0.00 100
20260507004552 64 11 12.0 18.0 0.00 0.00 0.00 100
20260507004052 64 12 9.0 21.0 0.00 0.00 0.00 100
20260507003552 64 28 4.0 17.0 0.00 0.00 0.00 100
20260507003051 66 279 2.0 17.0 0.00 0.00 0.00 100
20260507002551 66 2 13.0 13.0 0.00 0.00 0.00 100
20260507002051 66 282 1.0 10.0 0.00 0.00 0.00 100
20260507001551 65 28 7.0 11.0 0.00 0.00 0.00 100
20260507001050 66 11 2.0 9.0 0.00 0.00 0.00 100
20260507000550 65 33 3.0 9.0 0.00 0.00 0.00 100
20260507000050 65 42 2.0 6.0 0.00 0.00 0.00 100
20260506235549 64 29 1.0 8.0 0.00 0.00 0.00 100
20260506235049 67 309 3.0 3.0 0.00 0.00 0.00 100
20260506234549 65 25 0.0 3.0 0.00 0.00 0.00 100
20260506234049 66 333 0.0 5.0 0.00 0.00 0.00 100
20260506233548 66 42 4.0 4.0 0.00 0.00 0.00 100
20260506233048 65 133 0.0 3.0 0.00 0.00 0.00 100
20260506232548 67 39 0.0 4.0 0.00 0.00 0.00 100
20260506232047 65 19 4.0 4.0 0.00 0.00 0.00 100
20260506231547 66 312 0.0 0.0 0.00 0.00 0.00 100
20260506231047 66 312 0.0 2.0 0.00 0.00 0.00 100
20260506230547 68 16 0.0 0.0 0.00 0.00 0.00 100
20260506230046 66 16 0.0 0.0 0.00 0.00 0.00 100
20260506225546 66 16 0.0 0.0 0.00 0.00 0.00 100
20260506225046 65 16 0.0 0.0 0.00 0.00 0.00 100
20260506224545 66 16 0.0 4.0 0.00 0.00 0.00 100
20260506224045 65 63 1.0 2.0 0.00 0.00 0.00 100
20260506223545 65 268 0.0 3.0 0.00 0.00 0.00 100
20260506223044 66 305 2.0 4.0 0.00 0.00 0.00 100
20260506222544 66 213 0.0 3.0 0.00 0.00 0.00 100
20260506222044 66 293 0.0 5.0 0.00 0.00 0.00 100
20260506221544 66 217 2.0 6.0 0.00 0.00 0.00 100
20260506221043 66 307 2.0 5.0 0.00 0.00 0.00 100
20260506220543 67 278 2.0 6.0 0.00 0.00 0.00 100
20260506220043 67 291 4.0 5.0 0.00 0.00 0.00 100
20260506215542 67 337 1.0 7.0 0.00 0.00 0.00 100
20260506215042 68 267 4.0 6.0 0.00 0.00 0.00 100
20260506214542 67 289 4.0 5.0 0.00 0.00 0.00 100
20260506214042 68 262 1.0 4.0 0.00 0.00 0.00 100
20260506213541 68 288 3.0 5.0 0.00 0.00 0.00 100
20260506213041 68 40 0.0 6.0 0.00 0.00 0.00 100
20260506212541 68 261 2.0 8.0 0.00 0.00 0.00 100
20260506212040 67 220 6.0 10.0 0.00 0.00 0.00 100
20260506211540 67 271 4.0 10.0 0.00 0.00 0.00 100
20260506211040 68 293 6.0 10.0 0.00 0.00 0.00 100
20260506210540 68 261 4.0 10.0 0.00 0.00 0.00 100
20260506210039 68 253 3.0 13.0 0.00 0.00 0.00 100
20260506205539 68 309 6.0 13.0 0.00 0.00 0.00 100
20260506205039 68 286 9.0 12.0 0.00 0.00 0.00 100
20260506204538 68 260 10.0 15.0 0.00 0.00 0.00 100
20260506204038 69 307 8.0 16.0 0.00 0.00 0.00 100
20260506203538 69 319 6.0 18.0 0.00 0.00 0.00 100
20260506203037 68 313 8.0 18.0 0.00 0.00 0.00 100
20260506202537 69 289 14.0 19.0 0.00 0.00 0.00 100
20260506202037 69 279 11.0 18.0 0.00 0.00 0.00 100
20260506201537 68 258 15.0 15.0 0.00 0.00 0.00 100
20260506201036 69 262 7.0 15.0 0.00 0.00 0.00 100
20260506200536 68 303 5.0 13.0 0.00 0.00 0.00 100
20260506200036 68 271 7.0 15.0 0.00 0.00 0.00 100
20260506195535 68 284 7.0 12.0 0.00 0.00 0.00 100
20260506195035 69 295 8.0 13.0 0.00 0.00 0.00 100
20260506194535 68 285 6.0 10.0 0.00 0.00 0.00 100
20260506194035 68 296 7.0 10.0 0.00 0.00 0.00 100
20260506193534 68 250 5.0 12.0 0.00 0.00 0.00 100
20260506193034 70 261 5.0 13.0 0.00 0.00 0.00 100
20260506192534 69 244 4.0 11.0 0.00 0.00 0.00 100
20260506192033 68 326 4.0 16.0 0.00 0.00 0.00 100
20260506191533 69 258 9.0 16.0 0.00 0.00 0.00 100
20260506191033 69 237 7.0 15.0 0.00 0.00 0.00 100
20260506190533 69 248 8.0 15.0 0.00 0.00 0.00 100
20260506190032 70 260 4.0 15.0 0.00 0.00 0.00 100
20260506185532 69 261 8.0 12.0 0.00 0.00 0.00 100
20260506185032 69 254 9.0 12.0 0.00 0.00 0.00 100
20260506184531 70 219 8.0 12.0 0.00 0.00 0.00 100
20260506184031 70 243 4.0 17.0 0.00 0.00 0.00 100
20260506183531 70 248 9.0 14.0 0.00 0.00 0.00 100
20260506183030 70 205 11.0 15.0 0.00 0.00 0.00 100
20260506182530 70 154 5.0 15.0 0.00 0.00 0.00 100
20260506182030 71 262 7.0 14.0 0.00 0.00 0.00 100
20260506181530 71 279 9.0 16.0 0.00 0.00 0.00 100
20260506181029 71 255 5.0 16.0 0.00 0.00 0.00 100
20260506180529 71 303 6.0 14.0 0.00 0.00 0.00 100
20260506180029 71 253 8.0 15.0 0.00 0.00 0.00 100
20260506175528 72 265 6.0 15.0 0.00 0.00 0.00 100
20260506175028 72 313 9.0 15.0 0.00 0.00 0.00 100
20260506174528 72 267 8.0 15.0 0.00 0.00 0.00 100
20260506174028 72 258 3.0 14.0 0.00 0.00 0.00 100
20260506173527 73 293 6.0 17.0 0.00 0.00 0.00 100
20260506173027 73 288 10.0 17.0 0.00 0.00 0.00 100
20260506172527 73 291 7.0 20.0 0.00 0.00 0.00 100
20260506172026 73 299 9.0 22.0 0.00 0.00 0.00 100
20260506171526 73 243 10.0 16.0 0.00 0.00 0.00 100
20260506171026 74 315 4.0 11.0 0.00 0.00 0.00 100
20260506170025 75 275 8.0 12.0 0.00 0.00 0.00 100
20260506165525 74 289 8.0 20.0 0.00 0.00 0.00 100
20260506165025 75 329 8.0 17.0 0.00 0.00 0.00 100
20260506164524 75 248 10.0 16.0 0.00 0.00 0.00 100
20260506164024 75 241 12.0 14.0 0.00 0.00 0.00 100
20260506163524 75 208 2.0 15.0 0.00 0.00 0.00 100
20260506163023 75 243 8.0 14.0 0.00 0.00 0.00 100
20260506162523 76 295 6.0 16.0 0.00 0.00 0.00 100
20260506162023 76 293 8.0 18.0 0.00 0.00 0.00 100
20260506161523 76 202 10.0 17.0 0.00 0.00 0.00 100
20260506161022 77 220 2.0 16.0 0.00 0.00 0.00 100
20260506160522 76 275 10.0 17.0 0.00 0.00 0.00 100
20260506160022 77 303 8.0 17.0 0.00 0.00 0.00 100
20260506155521 77 275 17.0 17.0 0.00 0.00 0.00 100
20260506155021 77 279 8.0 15.0 0.00 0.00 0.00 100
20260506154521 77 323 6.0 16.0 0.00 0.00 0.00 100
20260506154020 76 239 8.0 16.0 0.00 0.00 0.00 100
20260506153520 77 279 11.0 20.0 0.00 0.00 0.00 100
20260506153020 77 284 5.0 15.0 0.00 0.00 0.00 100
20260506152520 77 255 11.0 18.0 0.00 0.00 0.00 100
20260506152019 77 326 6.0 17.0 0.00 0.00 0.00 100
20260506151519 77 261 8.0 19.0 0.00 0.00 0.00 100
20260506151019 77 299 7.0 21.0 0.00 0.00 0.00 100
20260506150518 78 271 11.0 22.0 0.00 0.00 0.00 100
20260506150018 79 161 9.0 18.0 0.00 0.00 0.00 100
20260506145518 78 260 9.0 21.0 0.00 0.00 0.00 100
20260506145018 77 286 7.0 18.0 0.00 0.00 0.00 100
20260506144517 78 296 13.0 19.0 0.00 0.00 0.00 100
20260506144017 78 275 11.0 22.0 0.00 0.00 0.00 100
20260506143517 79 286 19.0 21.0 0.00 0.00 0.00 100
20260506143016 79 323 8.0 19.0 0.00 0.00 0.00 100
20260506142516 79 255 8.0 20.0 0.00 0.00 0.00 100
20260506142016 80 299 14.0 22.0 0.00 0.00 0.00 100
20260506141516 83 289 9.0 24.0 0.00 0.00 0.00 100
20260506141015 80 309 8.0 21.0 0.00 0.00 0.00 100
20260506140515 81 281 11.0 20.0 0.00 0.00 0.00 100
20260506140015 82 278 7.0 20.0 0.00 0.00 0.00 100
20260506135514 82 292 13.0 20.0 0.00 0.00 0.00 100
20260506135014 83 316 2.0 20.0 0.00 0.00 0.00 100
20260506134514 83 358 6.0 22.0 0.00 0.00 0.00 100
20260506134013 83 253 6.0 18.0 0.00 0.00 0.00 100
20260506133514 80 251 10.0 18.0 0.00 0.00 0.00 100
20260506133013 80 293 12.0 21.0 0.00 0.00 0.00 100
20260506132513 81 299 11.0 20.0 0.00 0.00 0.00 100
20260506132012 83 285 6.0 21.0 0.00 0.00 0.00 100
20260506131512 85 258 12.0 20.0 0.00 0.00 0.00 100
20260506131012 84 250 12.0 21.0 0.00 0.00 0.00 100
20260506130511 82 281 9.0 21.0 0.00 0.00 0.00 100
20260506130011 80 281 7.0 16.0 0.00 0.00 0.00 100
20260506125511 80 213 4.0 25.0 0.00 0.00 0.00 100
20260506125011 84 306 10.0 18.0 0.00 0.00 0.00 100
20260506124510 83 286 7.0 24.0 0.00 0.00 0.00 100
20260506124010 82 278 19.0 19.0 0.00 0.00 0.00 100
20260506123510 83 279 3.0 23.0 0.00 0.00 0.00 100
20260506123009 81 302 4.0 18.0 0.00 0.00 0.00 100
20260506122509 80 282 5.0 21.0 0.00 0.00 0.00 100
20260506122009 80 248 7.0 20.0 0.00 0.00 0.00 100
20260506121509 80 195 7.0 20.0 0.00 0.00 0.00 100
20260506121008 82 233 9.0 14.0 0.00 0.00 0.00 100
20260506120508 81 299 7.0 23.0 0.00 0.00 0.00 100
20260506120008 81 19 6.0 18.0 0.00 0.00 0.00 100
20260506115507 81 326 6.0 16.0 0.00 0.00 0.00 100
20260506115007 81 248 10.0 20.0 0.00 0.00 0.00 100
20260506114507 82 281 10.0 19.0 0.00 0.00 0.00 100
20260506114006 80 244 4.0 23.0 0.00 0.00 0.00 100
20260506113506 81 279 9.0 16.0 0.00 0.00 0.00 100
20260506113006 81 151 3.0 20.0 0.00 0.00 0.00 100
20260506112506 81 234 5.0 17.0 0.00 0.00 0.00 100
20260506112005 81 234 5.0 19.0 0.00 0.00 0.00 100
20260506111505 82 313 5.0 16.0 0.00 0.00 0.00 100
20260506111005 81 250 9.0 23.0 0.00 0.00 0.00 100
20260506110504 81 243 15.0 19.0 0.00 0.00 0.00 100
20260506110004 80 267 9.0 23.0 0.00 0.00 0.00 100
20260506105504 78 178 6.0 17.0 0.00 0.00 0.00 100
20260506105004 77 181 12.0 20.0 0.00 0.00 0.00 100
20260506104503 78 191 7.0 20.0 0.00 0.00 0.00 100
20260506104003 78 160 12.0 17.0 0.00 0.00 0.00 100
20260506103503 79 233 16.0 17.0 0.00 0.00 0.00 100
20260506103002 79 202 8.0 17.0 0.00 0.00 0.00 100
20260506102502 77 240 9.0 20.0 0.00 0.00 0.00 100
20260506102002 79 244 8.0 16.0 0.00 0.00 0.00 100
20260506101501 77 240 2.0 17.0 0.00 0.00 0.00 100
20260506101001 77 165 4.0 16.0 0.00 0.00 0.00 100
20260506100501 75 201 11.0 17.0 0.00 0.00 0.00 100
20260506100001 76 192 7.0 22.0 0.00 0.00 0.00 100
20260506095500 77 236 7.0 14.0 0.00 0.00 0.00 100
20260506095000 79 182 6.0 14.0 0.00 0.00 0.00 100
20260506094500 79 278 6.0 20.0 0.00 0.00 0.00 100
20260506094000 79 296 11.0 19.0 0.00 0.00 0.00 100
20260506093459 75 247 8.0 17.0 0.00 0.00 0.00 100
20260506092959 76 177 7.0 16.0 0.00 0.00 0.00 100
20260506092459 76 178 15.0 15.0 0.00 0.00 0.00 100
20260506091958 78 234 5.0 14.0 0.00 0.00 0.00 100
20260506091458 79 222 6.0 16.0 0.00 0.00 0.00 100
20260506090958 76 187 11.0 13.0 0.00 0.00 0.00 100
20260506090458 76 187 6.0 13.0 0.00 0.00 0.00 100
20260506085957 78 260 2.0 13.0 0.00 0.00 0.00 100
20260506085457 77 268 4.0 14.0 0.00 0.00 0.00 100
20260506084957 76 191 7.0 14.0 0.00 0.00 0.00 100
20260506084456 76 184 7.0 14.0 0.00 0.00 0.00 100
20260506083956 78 184 8.0 11.0 0.00 0.00 0.00 100
20260506083456 77 208 5.0 11.0 0.00 0.00 0.00 100
20260506082955 80 192 8.0 11.0 0.00 0.00 0.00 100
20260506082455 79 71 0.0 6.0 0.00 0.00 0.00 100
20260506081955 80 187 0.0 8.0 0.00 0.00 0.00 100
20260506081455 80 180 8.0 8.0 0.00 0.00 0.00 100
20260506080954 83 206 5.0 8.0 0.00 0.00 0.00 100
20260506080454 84 250 0.0 2.0 0.00 0.00 0.00 100
20260506073452 83 275 2.0 5.0 0.00 0.00 0.00 100
20260506072952 81 262 2.0 5.0 0.00 0.00 0.00 100
20260506072452 80 202 4.0 6.0 0.00 0.00 0.00 100
20260506071951 84 181 0.0 3.0 0.00 0.00 0.00 100
20260506071451 81 355 1.0 4.0 0.00 0.00 0.00 100
20260506070951 83 213 1.0 2.0 0.00 0.00 0.00 100
20260506070450 83 320 1.0 4.0 0.00 0.00 0.00 100
20260506062448 79 4 5.0 5.0 0.00 0.00 0.00 100
20260506061948 80 326 1.0 5.0 0.00 0.00 0.00 100
20260506061448 79 326 3.0 4.0 0.00 0.00 0.00 100
20260506060947 77 292 3.0 4.0 0.00 0.00 0.00 100
20260506060447 75 317 4.0 4.0 0.00 0.00 0.00 100
20260506050944 71 326 4.0 6.0 0.00 0.00 0.00 100
20260506050444 74 333 2.0 4.0 0.00 0.00 0.00 100
20260506044943 72 319 1.0 4.0 0.00 0.00 0.00 100
20260506044442 70 331 2.0 3.0 0.00 0.00 0.00 100
20260506043942 68 299 2.0 2.0 0.00 0.00 0.00 100
20260506043442 66 262 2.0 3.0 0.00 0.00 0.00 100
20260506042941 66 232 2.0 3.0 0.00 0.00 0.00 100
20260506042441 65 303 1.0 2.0 0.00 0.00 0.00 100
20260506041941 64 330 0.0 3.0 0.00 0.00 0.00 100
20260506041441 63 351 2.0 3.0 0.00 0.00 0.00 100
20260506040940 64 313 1.0 3.0 0.00 0.00 0.00 100
20260506040440 64 260 1.0 2.0 0.00 0.00 0.00 100
20260506035940 63 278 1.0 2.0 0.00 0.00 0.00 100
20260506035439 63 281 0.0 2.0 0.00 0.00 0.00 100
20260506034939 63 288 2.0 3.0 0.00 0.00 0.00 100
20260506034439 63 291 2.0 4.0 0.00 0.00 0.00 100
20260506033939 65 215 0.0 2.0 0.00 0.00 0.00 100
20260506033438 64 264 0.0 0.0 0.00 0.00 0.00 100
20260506032938 64 264 0.0 0.0 0.00 0.00 0.00 100
20260506032438 65 264 0.0 0.0 0.00 0.00 0.00 100
20260506031937 65 264 0.0 0.0 0.00 0.00 0.00 100
20260506031437 65 264 0.0 0.0 0.00 0.00 0.00 100
20260506030937 65 264 0.0 0.0 0.00 0.00 0.00 100
20260506030436 65 264 0.0 0.0 0.00 0.00 0.00 100
20260506025936 65 264 0.0 2.0 0.00 0.00 0.00 100